Tracking 28126 objects as of 1-Oct-2023
HD Live streaming from Space Station
objects crossing your sky now

ESTRELA DU SOL-TELSTAR14

Track ESTRELA DU SOL-TELSTAR14 now!
ESTRELA DU SOL-TELSTAR14 is classified as:


NORAD ID: 28137
Int'l Code: 2004-001A
Perigee: 36,180.6 km
Apogee: 36,225.3 km
Inclination: 9.0 °
Period: 1,457.1 minutes
Semi major axis: 42573 km
RCS: 12.5892 m2 (large)
Launch date: January 11, 2004
Source: United States/Brazil (USBZ)
Launch site: SEA LAUNCH (SEAL)

41 Ku-band transponders; direct-to-home video and internet to Brazil and North America.
Your satellite tracking list
Your tracking list is empty




NASA's NSSDC Master Catalog

Two Line Element Set (TLE):
1 28137U 04001A   23274.63533652  .00000019  00000-0  00000-0 0  9997
2 28137   9.0340  52.4033 0005246  39.2617 227.4657  0.98829531 71805
Source of the keplerian elements: AFSPC